Regional Weather Roundup
Issued by NWS Sioux Falls, SD

Home | Current Version | Previous Version | Graphics & Text | Print | Product List | Glossary Off
Versions: 1 2 3 4 5 6 7 8 9 10 11 12 13 14 15 16 17 18 19 20 21 22 23 24 25 26 27 28 29 30 31 32 33 34 35 36 37 38 39 40 41 42 43 44 45 46 47 48 49 50

000
ASUS43 KFSD 212302
RWRFSD

WEATHER ROUNDUP FOR SE SOUTH DAKOTA/SW MINNESOTA/NW IOWA
NATIONAL WEATHER SERVICE SIOUX FALLS SD
600 PM CDT MON AUG 21 2017

NOTE: "FAIR" INDICATES FEW OR NO CLOUDS BELOW 12,000 FEET WITH NO
SIGNIFICANT WEATHER AND OR OBSTRUCTIONS TO VISIBILITY.


SDZ038>040-050-052>070-220000-
SOUTHEAST SOUTH DAKOTA

CITY           SKY/WX    TMP DP  RH WIND       PRES   REMARKS
BROOKINGS      MOSUNNY   72  63  73 N7        29.96R
CHAMBERLAIN    MOSUNNY   79  69  71 W10       29.99R
HURON          SUNNY     79  65  62 NW12      29.95R
MADISON        FAIR      72  66  83 N12       29.98R
MITCHELL       SUNNY     76  65  68 N6        29.98R
SIOUX FALLS    CLOUDY    70  70 100 SW9       29.98R
WINNER         FAIR      78  67  68 N10       30.02R
YANKTON        CLOUDY    66  64  93 N3        30.02R
$$

MNZ071-072-080-081-089-090-097-098-220000-
SOUTHWEST MINNESOTA

CITY           SKY/WX    TMP DP  RH WIND       PRES   REMARKS
FAIRMONT       CLOUDY    65  62  90 SE16G24   29.87F
JACKSON        CLOUDY    64  64 100 S12       29.91R
LUVERNE        CLOUDY    66  63  88 SW5       30.00R
MARSHALL       PTSUNNY   70  64  81 W5        29.93R
MONTEVIDEO     CLOUDY    75  73  94 CALM      29.90S
PIPESTONE      CLOUDY    70  66  88 SW5       29.98R
REDWOOD FALLS  CLOUDY    70  66  87 SW6       29.90S
TRACY          PTSUNNY   72  67  86 W3        29.94S
WINDOM         PTSUNNY   68  63  83 W13       29.95R
WORTHINGTON    CLOUDY    66  63  90 SW8G20    29.99R
$$

IAZ001>003-012>014-020>022-031-032-NEZ013-014-SDZ071-220000-
NORTHWEST IOWA

CITY           SKY/WX    TMP DP  RH WIND       PRES   REMARKS
CHEROKEE       LGT RAIN  65  64  97 W13       29.99R
DENISON        MOSUNNY   68  64  88 E13G25    29.97F
ESTHERVILLE    CLOUDY    65  64  97 S8        29.90F
ORANGE CITY    DRIZZLE   66  64  94 SE6       29.99R
SHELDON        CLOUDY    66  64  94 S7        29.97R
SIOUX CITY     CLOUDY    71  66  84 N8        29.98R
SPENCER        CLOUDY    68  64  87 SE9       29.95R
STORM LAKE     CLOUDY    64  63  94 E9G17     29.98R
$$

ABBREVIATIONS USED IN REMARKS
   TC - TEMPERATURE IN CELSIUS
  WCI - WIND CHILL INDEX
   HX - HEAT INDEX
  VSB - VISIBILITY





USA.gov is the U.S. government's official web portal to all federal, state and local government web resources and services.